Theta_e
307 307 308 309 309 309 310 310 310 310 309 310 310 311 311 311 315 320 325 323 323 318 323 325 329 328 328 333 336 337 347 347 343 344 346 346 348 345 342 343 340 341 340 337 337
307 307 308 309 309 309 310 310 310 310 310 310 311 311 311 313 320 328 322 320 320 318 323 328 329 329 329 338 337 342 343 342 341 341 342 347 347 347 345 344 341 338 335 336 336
307 308 309 310 309 310 310 310 310 310 311 311 311 311 312 315 330 325 321 321 320 320 325 327 327 328 329 337 338 339 342 337 339 341 343 344 347 344 344 344 340 338 333 328 327
307 308 309 310 310 311 311 311 311 311 311 312 312 312 313 323 331 326 322 322 321 321 325 327 327 328 332 336 336 341 339 340 342 342 343 345 345 345 344 340 335 333 329 327 325
307 308 310 311 311 311 311 311 311 311 312 311 311 312 320 333 327 321 320 322 323 323 325 328 328 333 335 336 338 341 342 343 343 344 344 344 345 342 340 336 334 333 330 326 323
308 309 311 312 311 311 311 311 311 311 312 311 312 313 330 331 324 321 323 324 325 326 328 329 331 333 335 337 341 334 341 343 343 344 344 345 343 343 340 335 334 333 330 325 322
308 309 311 312 312 311 311 311 312 312 313 313 312 316 331 329 324 326 326 327 327 330 332 332 333 337 337 338 338 339 339 340 344 344 344 342 346 345 339 336 336 334 332 329 326
309 310 311 312 312 312 313 313 314 315 315 316 314 321 331 326 325 325 326 326 327 332 335 335 337 338 341 339 337 339 338 342 339 339 344 343 352 342 338 338 337 335 332 329 328
309 310 311 312 312 312 313 313 314 316 318 319 324 330 331 325 327 326 326 326 327 333 332 335 336 336 335 341 345 341 342 341 338 334 343 345 349 342 337 338 337 334 332 330 329
310 311 312 313 313 313 313 314 316 320 328 325 328 330 329 323 325 326 326 326 326 326 328 329 332 334 338 342 347 343 343 339 341 340 336 340 348 343 340 339 336 334 332 330 330
311 312 313 313 313 313 314 325 329 332 331 330 328 327 326 324 325 326 325 326 326 326 327 328 328 327 327 328 329 335 340 343 339 336 337 346 348 343 340 339 336 334 333 330 330
312 313 313 314 314 314 315 330 328 327 329 329 328 327 326 326 325 325 325 325 325 325 326 326 326 327 330 329 335 338 338 341 337 336 340 345 348 343 341 339 336 335 332 330 329
313 313 314 314 314 316 326 329 326 326 329 326 326 326 326 325 324 324 325 325 325 326 328 331 332 332 331 334 336 336 337 340 338 334 341 342 349 342 342 339 335 334 332 329 330
314 313 314 314 317 327 328 325 326 326 329 327 328 327 327 327 327 327 326 326 327 329 332 334 333 332 330 337 336 336 335 333 335 337 342 337 343 336 340 341 334 332 330 331 329
315 313 313 315 317 325 326 324 327 329 335 327 328 328 328 329 329 328 328 328 328 334 335 337 334 336 337 335 333 333 334 333 333 340 339 341 344 340 338 342 337 333 329 329 328
314 312 313 317 318 324 323 324 329 330 336 328 327 326 328 328 329 330 329 330 331 332 332 335 333 333 337 338 335 335 336 333 331 336 346 343 343 338 334 337 338 333 331 328 325
313 311 312 317 327 323 324 327 330 336 333 328 328 327 328 330 329 328 331 331 333 334 334 337 336 336 335 341 337 332 332 333 332 336 345 342 340 335 338 337 335 335 330 326 326
311 311 313 315 321 322 326 330 343 337 329 329 328 327 329 331 330 330 329 333 335 334 332 333 342 339 337 337 332 328 329 331 336 337 329 335 339 339 335 333 332 329 328 328 327
310 312 316 324 323 325 330 336 339 338 332 330 328 328 328 330 328 333 335 337 335 334 336 334 335 331 333 332 329 330 331 329 333 331 336 337 335 333 334 333 330 332 331 330 327
320 324 322 324 326 327 332 340 340 333 331 331 333 330 337 334 334 335 338 336 335 333 333 334 337 332 329 330 329 326 328 331 331 339 336 340 336 335 332 328 329 332 331 329 326
322 325 324 326 326 330 334 338 334 331 333 335 337 336 336 335 333 333 338 336 334 334 332 335 334 329 330 330 332 332 334 332 334 338 336 337 338 331 327 326 325 325 328 327 325
329 330 327 324 329 332 340 332 324 332 331 332 333 333 333 332 333 332 338 336 332 331 333 331 331 336 335 331 331 332 333 335 338 338 335 336 335 327 322 321 323 323 322 324 321
335 331 325 326 333 338 337 331 332 333 332 332 332 331 331 331 332 331 337 333 329 328 330 332 335 331 335 336 333 333 330 330 333 333 334 337 334 323 321 320 320 320 321 321 320
336 328 325 327 331 336 334 333 333 332 332 332 330 330 329 330 331 332 336 334 330 327 336 337 334 338 339 336 334 334 329 328 330 332 333 327 328 321 320 321 321 320 320 320 320
339 330 326 330 334 339 333 333 332 332 332 331 332 329 328 332 332 331 332 335 332 330 333 341 338 335 332 331 330 328 328 329 327 326 327 325 323 321 320 320 320 321 320 320 320
339 334 328 336 338 337 333 334 334 333 332 332 330 330 329 331 332 333 332 331 333 337 334 334 338 336 335 328 326 326 326 326 324 321 322 322 322 320 320 320 320 320 319 319 319
331 329 336 334 337 334 332 333 334 333 332 330 329 330 331 330 329 330 332 334 334 338 341 339 340 339 340 334 331 331 326 325 323 322 321 323 321 321 321 321 323 323 320 319 319
Wind_Speed
12 12 11 10 10 9 10 10 10 12 12 12 12 15 16 18 16 9 9 1 2 5 7 8 10 14 15 7 14 6 5 6 14 12 12 18 19 17 18 20 13 8 11 9 6
12 12 11 10 9 9 10 11 10 12 12 12 12 15 17 20 12 15 5 3 1 5 7 9 11 9 12 22 7 5 0 5 16 17 12 21 19 16 12 17 12 13 14 9 4
13 12 11 11 9 10 11 10 10 11 11 11 12 14 16 15 9 8 7 3 5 6 10 16 17 13 18 13 9 11 7 11 12 14 17 16 18 16 18 11 9 11 10 13 16
13 11 11 11 9 9 10 10 9 11 11 11 12 14 18 3 1 7 7 6 6 6 12 17 10 16 14 6 9 11 16 10 9 11 16 16 16 17 15 11 16 15 16 15 14
11 10 10 9 8 10 10 11 10 12 11 11 11 14 7 9 5 9 8 9 7 9 14 14 12 11 10 19 21 14 13 9 8 8 16 15 15 16 18 16 17 18 16 13 13
12 9 9 10 9 10 10 12 11 11 11 11 11 15 5 9 8 9 9 8 10 11 18 15 2 8 16 5 11 17 9 6 6 11 13 17 19 9 13 14 15 15 15 15 16
11 9 10 11 10 11 11 11 10 10 10 10 11 10 10 10 12 10 10 10 11 17 18 15 12 21 22 7 25 14 20 26 4 6 9 14 10 13 17 16 16 16 14 13 15
11 10 10 10 10 11 10 11 10 10 9 11 12 4 5 9 12 10 10 8 7 8 9 7 8 10 12 7 14 14 7 7 15 14 5 17 9 15 19 16 14 16 13 14 12
10 10 10 10 10 10 11 11 11 10 9 10 8 7 11 11 9 13 12 10 3 2 6 8 14 10 4 11 2 5 8 12 7 12 14 30 18 15 12 14 12 13 13 10 13
10 10 9 9 9 11 11 13 12 8 8 6 14 9 9 13 19 13 8 7 7 4 8 10 13 14 10 9 9 13 6 19 7 7 30 38 12 20 18 13 12 14 14 10 13
11 10 9 9 9 12 13 9 5 5 9 14 9 16 9 17 15 10 11 11 13 9 13 16 12 13 17 15 14 12 14 20 13 16 7 2 17 13 13 12 13 13 14 11 10
10 10 9 9 11 14 9 7 7 11 7 21 7 11 5 9 8 11 17 13 13 13 16 15 17 14 14 14 23 20 11 7 6 4 6 14 15 15 12 11 12 15 14 10 12
9 9 9 10 13 14 11 14 8 8 6 8 10 12 9 11 10 14 16 14 17 18 16 21 10 12 11 8 15 11 11 5 7 7 11 6 7 6 3 5 8 6 7 7 11
9 9 9 11 11 12 15 5 8 5 5 7 7 7 8 14 5 10 14 16 17 12 9 21 14 13 16 16 4 8 8 10 11 13 3 9 5 2 9 11 16 13 12 5 9
9 9 9 9 15 12 4 7 9 3 5 13 10 16 11 10 11 10 7 8 8 23 12 11 16 22 29 6 11 13 14 16 21 8 6 3 2 10 11 11 13 13 14 13 9
9 8 8 10 13 13 8 10 4 5 6 8 8 10 14 13 7 12 8 12 4 9 4 2 4 8 16 26 22 9 16 22 14 5 4 4 5 12 5 12 8 11 14 13 11
8 8 12 14 7 12 12 10 6 5 11 9 12 8 14 1 5 4 2 6 8 8 9 3 6 10 12 9 26 17 19 13 13 10 2 18 13 5 10 8 12 12 10 8 8
6 8 11 20 13 14 13 8 5 17 10 8 8 9 4 2 3 3 8 5 1 14 12 9 6 11 19 11 15 20 14 10 11 13 18 14 7 4 9 14 10 9 11 8 8
5 7 9 14 12 8 7 5 6 19 5 1 4 6 9 9 4 1 13 10 9 12 10 14 13 12 6 6 14 11 12 14 16 20 8 1 3 5 11 11 9 8 5 11 8
3 7 15 15 6 7 6 8 11 4 2 8 4 3 11 9 12 6 9 8 11 10 12 12 12 16 20 11 12 14 12 11 10 8 4 8 11 6 4 10 10 10 6 6 6
5 3 12 11 7 5 9 11 8 3 5 15 12 5 7 4 11 10 10 13 14 13 15 13 9 12 14 13 19 13 17 13 7 6 3 5 4 4 11 12 11 9 9 8 10
6 5 10 9 5 6 8 5 4 9 7 9 11 13 13 11 9 9 12 12 16 17 14 13 5 8 18 16 17 20 17 14 6 8 4 2 3 8 12 12 10 10 12 11 10
3 5 7 8 5 6 23 8 5 11 10 12 6 5 4 4 5 5 12 12 12 12 8 10 7 7 3 12 14 12 13 15 11 6 10 6 2 8 9 11 11 12 10 5 3
4 3 4 6 10 6 6 8 9 8 9 6 8 10 10 6 5 3 11 6 9 8 6 5 6 14 10 7 10 10 13 12 7 7 5 8 7 12 13 11 11 10 7 8 11
4 2 2 8 11 16 10 13 9 4 3 7 7 13 9 5 4 5 5 12 8 5 11 8 10 16 12 10 11 7 10 11 13 10 6 9 15 13 12 12 11 10 10 9 4
4 5 4 4 12 9 13 9 11 7 6 10 8 9 8 8 8 10 9 7 8 7 8 4 4 12 12 10 8 11 8 7 11 14 13 12 14 12 12 11 10 9 12 14 12
5 9 5 3 6 5 5 2 14 10 7 8 7 7 8 9 9 10 9 8 7 8 9 3 2 5 2 6 4 7 12 11 13 11 12 9 9 11 12 12 9 12 14 14 12
Wind_Direction
329 323 322 324 315 326 330 322 324 315 309 310 308 308 311 308 302 269 237 123 154 194 209 249 246 263 246 139 83 106 107 207 170 157 145 121 94 76 77 78 54 58 73 105 121
319 319 327 319 321 329 324 317 316 310 306 304 308 311 313 319 301 258 179 140 188 192 211 227 236 247 263 83 76 83 102 251 137 129 133 116 118 127 103 92 85 79 83 98 96
319 323 326 322 321 334 313 310 312 307 301 305 311 316 317 326 267 124 134 157 195 232 264 278 293 286 275 119 156 152 203 93 80 112 100 102 103 114 119 79 107 119 104 86 74
318 323 322 316 329 317 309 309 311 302 305 306 315 316 321 293 274 126 179 202 213 240 273 279 260 268 297 321 149 158 85 96 104 108 115 106 84 57 71 113 125 125 126 114 105
317 324 315 318 321 305 310 305 306 301 300 305 315 323 319 243 99 152 189 208 226 244 261 274 273 37 355 293 53 349 88 102 116 117 108 121 92 100 105 127 126 123 118 119 119
322 323 313 314 313 308 308 302 302 296 298 310 319 319 262 259 127 154 167 196 232 228 260 253 282 241 252 76 116 216 278 107 137 107 112 108 134 101 138 141 136 137 136 138 141
319 318 314 309 311 307 305 300 296 294 301 307 310 317 259 244 156 167 183 213 233 245 245 247 224 118 271 295 98 104 40 337 81 125 153 148 131 119 150 158 148 144 154 137 141
315 310 305 302 307 301 299 293 292 294 298 303 301 292 268 149 170 186 213 219 240 272 315 313 284 247 179 244 10 56 96 188 252 338 248 226 142 148 162 158 152 151 148 147 168
307 302 303 307 302 297 294 293 289 286 288 295 296 209 263 161 204 205 214 214 207 273 315 316 280 300 68 93 141 189 227 224 295 29 293 270 131 167 165 161 163 151 155 149 114
302 301 301 298 295 299 297 294 285 283 294 273 271 281 228 181 204 198 241 295 234 246 254 248 253 257 126 140 221 236 201 204 16 34 266 280 135 157 169 173 171 158 138 147 139
306 301 297 294 306 301 305 299 225 209 224 238 215 229 155 186 189 208 218 231 266 242 255 252 260 272 314 301 322 47 55 122 162 214 322 123 151 169 161 183 157 161 157 154 143
304 292 294 299 302 297 282 252 6 321 249 227 248 250 314 154 212 226 224 232 237 250 255 256 258 277 338 333 17 18 359 345 266 329 214 217 147 167 158 177 171 169 150 140 126
301 289 288 293 297 284 231 283 315 325 267 170 190 197 193 207 199 197 215 222 253 257 285 296 39 355 291 23 64 47 302 278 260 288 254 352 117 62 9 164 110 70 76 119 140
300 280 277 294 295 252 232 292 308 34 273 147 214 136 173 235 186 160 192 229 255 298 86 282 21 334 310 88 224 237 225 316 269 256 0 336 306 303 190 175 90 80 84 217 159
290 270 271 279 302 290 328 306 348 265 262 164 176 148 190 233 125 181 236 267 293 35 29 4 6 344 320 326 335 332 341 315 301 72 255 123 55 24 203 142 131 140 169 225 178
279 261 261 273 265 266 306 313 288 240 263 157 141 195 204 213 194 155 204 220 85 233 247 118 37 295 343 334 312 317 311 298 291 242 312 68 24 34 27 249 142 185 187 208 115
263 244 242 254 269 332 312 293 227 290 290 146 183 210 209 138 185 296 237 261 3 323 309 63 49 357 49 272 291 346 329 327 340 349 55 107 81 212 299 93 127 172 140 96 111
260 245 253 255 271 304 312 275 344 218 227 147 214 210 157 89 168 300 257 38 3 351 338 342 221 193 214 235 344 321 342 359 330 307 310 47 22 44 324 66 40 86 115 92 41
263 257 252 252 250 289 286 273 199 268 56 188 236 273 216 183 246 11 2 20 31 9 356 316 345 347 47 267 341 359 343 356 342 299 34 15 132 262 217 127 142 147 185 99 140
284 238 239 229 222 266 272 185 248 340 22 279 6 297 1 23 300 86 281 23 354 36 345 333 337 334 339 12 26 357 21 343 357 9 1 129 64 14 65 40 98 116 105 142 135
280 216 246 208 214 255 256 243 187 73 25 10 204 323 45 99 345 9 83 66 13 358 330 35 3 322 42 28 25 18 15 3 73 105 299 332 57 287 20 46 22 38 139 148 114
270 254 173 189 228 219 302 12 278 105 46 48 38 37 19 19 347 340 66 38 19 9 6 35 309 325 68 43 53 50 30 18 34 61 129 184 45 279 31 30 31 12 26 51 13
253 234 173 193 241 148 220 164 81 62 52 49 47 41 24 47 335 24 88 56 33 33 20 334 23 307 65 52 43 44 31 13 72 96 27 54 311 30 33 20 27 18 24 33 45
279 158 175 218 261 323 151 120 85 63 60 59 14 32 3 340 92 352 103 72 61 52 326 293 20 81 70 62 24 24 13 40 49 39 39 33 128 35 19 18 19 19 1 350 58
247 278 189 209 238 206 184 144 148 115 99 11 56 21 4 327 349 80 78 124 133 136 57 359 73 83 78 45 54 45 43 31 38 21 15 38 53 24 15 4 12 2 2 343 36
290 337 185 284 298 6 96 237 115 81 2 74 35 53 37 34 30 26 4 28 34 29 84 29 90 85 52 84 79 50 55 54 48 28 16 25 26 14 13 3 11 14 359 351 352
346 285 278 93 273 240 157 95 93 80 44 44 357 89 64 53 64 71 77 68 53 7 35 74 124 96 147 269 313 34 3 9 61 43 20 30 358 11 7 344 20 19 10 353 354